This is the latest recevied weather packets stored in our database for station/object K0SDS. If no packets are shown the sender has not sent any weather packets the latest 10 day(s).
| Time | Temp. | Humidity | Pressure | Rain* | Wind** | Luminosity | Snow |
|---|---|---|---|---|---|---|---|
| 1777642233 | 8.89° C | 85% | 1018.7 hPa | 0 mm | - | 171 W/m² | - |
| 1777641930 | 8.33° C | 87% | 1018.8 hPa | 0 mm | - | 167 W/m² | - |
| 1777641626 | 7.78° C | 87% | 1019 hPa | 0 mm | - | 111 W/m² | - |
| 1777641321 | 7.22° C | 90% | 1019.1 hPa | 0 mm | - | 95 W/m² | - |
| 1777641016 | 7.78° C | 91% | 1019 hPa | 0 mm | - | 88 W/m² | - |
| 1777640713 | 6.67° C | 92% | 1019 hPa | 0 mm | - | 84 W/m² | - |
| 1777640410 | 6.11° C | 93% | 1018.9 hPa | 0 mm | - | 71 W/m² | - |
| 1777640107 | 6.67° C | 94% | 1018.9 hPa | 0 mm | - | 62 W/m² | - |
| 1777639803 | 6.11° C | 94% | 1019 hPa | 0 mm | - | 55 W/m² | - |
| 1777639501 | 5.56° C | 95% | 1018.7 hPa | 0 mm | - | 49 W/m² | - |
| 1777639197 | 5.56° C | 96% | 1018.6 hPa | 0 mm | - | 45 W/m² | - |
| 1777638894 | 5° C | 96% | 1018.6 hPa | 0 mm | - | 42 W/m² | - |
| 1777638589 | 4.44° C | 97% | 1018.8 hPa | 0 mm | - | 35 W/m² | - |
| 1777638286 | 3.89° C | 96% | 1019 hPa | 0 mm | - | 31 W/m² | - |
| 1777637982 | 3.89° C | 97% | 1019 hPa | 0 mm | - | 26 W/m² | - |
| 1777637679 | 3.33° C | 97% | 1019 hPa | 0 mm | - | 26 W/m² | - |
| 1777637376 | 2.22° C | 96% | 1019 hPa | 0 mm | - | 23 W/m² | - |
| 1777637072 | 2.22° C | 96% | 1019.1 hPa | 0 mm | - | 21 W/m² | - |
| 1777636768 | 2.22° C | 96% | 1019.1 hPa | 0 mm | - | 18 W/m² | - |
| 1777636465 | 2.22° C | 96% | 1019 hPa | 0 mm | - | 16 W/m² | - |
| 1777636161 | 2.22° C | 96% | 1018.9 hPa | 0 mm | - | 14 W/m² | - |
| 1777635856 | 2.22° C | 96% | 1019.1 hPa | 0 mm | - | 10 W/m² | - |
| 1777635552 | 2.78° C | 96% | 1018.9 hPa | 0 mm | - | 8 W/m² | - |
| 1777635249 | 2.22° C | 95% | 1018.9 hPa | 0 mm | - | 6 W/m² | - |
| 1777634946 | 2.22° C | 95% | 1019 hPa | 0 mm | - | 3 W/m² | - |
* Rain latest hour (hover to see other rain measurements)
** Current wind speed in m/s (hover to see current wind gust speed)